Time,TemperatureF,DewpointF,PressureIn,WindDirection,WindDirectionDegrees,WindSpeedMPH,WindSpeedGustMPH,Humidity,HourlyPrecipIn,Conditions,Clouds,dailyrainin,SoftwareType,DateUTC
2013-04-26 05:15:00,41.8,35.1,30.39,ESE,111,2.0,2.0,77,0.00,,,0.00,Wunderground v.1.15,2013-04-26 10:15:00,
2013-04-26 05:20:00,41.8,34.8,30.38,SSE,154,2.0,2.0,76,0.00,,,0.00,Wunderground v.1.15,2013-04-26 10:20:00,
2013-04-26 05:25:00,42.0,35.0,30.38,SSE,163,2.0,2.0,76,0.00,,,0.00,Wunderground v.1.15,2013-04-26 10:25:00,
2013-04-26 05:30:00,42.1,35.1,30.38,SSE,158,2.0,4.0,76,0.00,,,0.00,Wunderground v.1.15,2013-04-26 10:30:00,
2013-04-26 05:35:00,42.1,35.1,30.38,SE,143,3.0,3.0,76,0.00,,,0.00,Wunderground v.1.15,2013-04-26 10:35:00,
2013-04-26 05:40:00,42.2,35.2,30.38,SSE,148,3.0,3.0,76,0.00,,,0.00,Wunderground v.1.15,2013-04-26 10:40:00,
2013-04-26 05:45:00,42.2,35.2,30.38,SE,146,2.0,2.0,76,0.00,,,0.00,Wunderground v.1.15,2013-04-26 10:45:00,
2013-04-26 05:50:00,42.3,35.3,30.39,SSE,150,2.0,2.0,76,0.00,,,0.00,Wunderground v.1.15,2013-04-26 10:50:00,
2013-04-26 05:55:00,42.3,35.3,30.39,South,169,2.0,2.0,76,0.00,,,0.00,Wunderground v.1.15,2013-04-26 10:55:00,
2013-04-26 06:00:00,42.4,35.0,30.39,SSE,163,2.0,2.0,75,0.00,,,0.00,Wunderground v.1.15,2013-04-26 11:00:00,
2013-04-26 06:05:00,42.4,35.0,30.38,SSE,155,2.0,2.0,75,0.00,,,0.00,Wunderground v.1.15,2013-04-26 11:05:00,
2013-04-26 06:10:00,42.3,34.9,30.39,SSE,151,3.0,3.0,75,0.00,,,0.00,Wunderground v.1.15,2013-04-26 11:10:00,
2013-04-26 06:15:00,42.3,35.3,30.39,SSE,150,3.0,3.0,76,0.00,,,0.00,Wunderground v.1.15,2013-04-26 11:15:00,
2013-04-26 06:20:00,42.4,35.4,30.38,SE,146,2.0,3.0,76,0.00,,,0.00,Wunderground v.1.15,2013-04-26 11:20:00,
2013-04-26 06:25:00,42.5,35.1,30.38,SE,140,3.0,3.0,75,0.00,,,0.00,Wunderground v.1.15,2013-04-26 11:25:00,
2013-04-26 06:30:00,42.8,35.4,30.38,SE,132,3.0,3.0,75,0.00,,,0.00,Wunderground v.1.15,2013-04-26 11:30:00,
2013-04-26 06:35:00,43.0,35.6,30.38,SSE,162,3.0,3.0,75,0.00,,,0.00,Wunderground v.1.15,2013-04-26 11:35:00,
2013-04-26 06:40:00,43.3,35.6,30.39,SSE,165,3.0,6.0,74,0.00,,,0.00,Wunderground v.1.15,2013-04-26 11:40:00,
2013-04-26 06:45:00,43.5,35.8,30.39,South,183,4.0,6.0,74,0.00,,,0.00,Wunderground v.1.15,2013-04-26 11:45:00,
2013-04-26 06:50:00,43.7,35.6,30.39,SE,144,4.0,4.0,73,0.00,,,0.00,Wunderground v.1.15,2013-04-26 11:50:00,
2013-04-26 06:55:00,43.8,35.7,30.39,SSE,153,3.0,6.0,73,0.00,,,0.00,Wunderground v.1.15,2013-04-26 11:55:00,
2013-04-26 07:00:00,44.1,35.6,30.39,SSE,154,3.0,3.0,72,0.00,,,0.00,Wunderground v.1.15,2013-04-26 12:00:00,
2013-04-26 07:05:00,44.4,36.3,30.40,SSE,157,3.0,3.0,73,0.00,,,0.00,Wunderground v.1.15,2013-04-26 12:05:00,
2013-04-26 07:10:00,44.7,36.2,30.39,SE,144,3.0,3.0,72,0.00,,,0.00,Wunderground v.1.15,2013-04-26 12:10:00,
2013-04-26 07:15:00,44.9,36.4,30.39,SE,141,3.0,3.0,72,0.00,,,0.00,Wunderground v.1.15,2013-04-26 12:15:00,
2013-04-26 07:20:00,45.1,36.3,30.39,SSE,148,3.0,4.0,71,0.00,,,0.00,Wunderground v.1.15,2013-04-26 12:20:00,
2013-04-26 07:25:00,45.3,36.4,30.39,SE,134,4.0,4.0,71,0.00,,,0.00,Wunderground v.1.15,2013-04-26 12:25:00,
2013-04-26 07:30:00,45.6,36.7,30.39,SSE,156,4.0,4.0,71,0.00,,,0.00,Wunderground v.1.15,2013-04-26 12:30:00,
2013-04-26 07:35:00,45.8,36.9,30.39,SSE,149,3.0,4.0,71,0.00,,,0.00,Wunderground v.1.15,2013-04-26 12:35:00,
2013-04-26 07:40:00,46.1,37.2,30.39,SSE,155,4.0,4.0,71,0.00,,,0.00,Wunderground v.1.15,2013-04-26 12:40:00,
2013-04-26 07:45:00,46.4,37.1,30.39,SSE,148,4.0,4.0,70,0.00,,,0.00,Wunderground v.1.15,2013-04-26 12:45:00,
2013-04-26 07:50:00,46.8,37.5,30.39,SSE,151,4.0,4.0,70,0.00,,,0.00,Wunderground v.1.15,2013-04-26 12:50:00,
2013-04-26 07:55:00,47.2,37.5,30.39,SE,135,4.0,4.0,69,0.00,,,0.00,Wunderground v.1.15,2013-04-26 12:55:00,
2013-04-26 08:00:00,47.4,37.7,30.39,SSE,157,4.0,4.0,69,0.00,,,0.00,Wunderground v.1.15,2013-04-26 13:00:00,
2013-04-26 08:05:00,47.6,37.9,30.39,South,186,4.0,7.0,69,0.00,,,0.00,Wunderground v.1.15,2013-04-26 13:05:00,
2013-04-26 08:10:00,47.9,37.8,30.39,South,171,4.0,7.0,68,0.00,,,0.00,Wunderground v.1.15,2013-04-26 13:10:00,
2013-04-26 08:15:00,48.2,38.5,30.39,SE,142,4.0,7.0,69,0.00,,,0.00,Wunderground v.1.15,2013-04-26 13:15:00,
2013-04-26 08:20:00,48.6,38.9,30.39,South,169,5.0,5.0,69,0.00,,,0.00,Wunderground v.1.15,2013-04-26 13:20:00,
2013-04-26 08:25:00,49.0,39.3,30.40,South,188,5.0,6.0,69,0.00,,,0.00,Wunderground v.1.15,2013-04-26 13:25:00,
2013-04-26 08:30:00,49.5,39.0,30.40,South,187,5.0,11.0,67,0.00,,,0.00,Wunderground v.1.15,2013-04-26 13:30:00,
2013-04-26 08:35:00,49.7,39.6,30.40,South,185,7.0,12.0,68,0.00,,,0.00,Wunderground v.1.15,2013-04-26 13:35:00,
2013-04-26 08:40:00,50.0,40.2,30.40,SSW,192,8.0,8.0,69,0.00,,,0.00,Wunderground v.1.15,2013-04-26 13:40:00,
2013-04-26 08:45:00,50.5,40.3,30.40,SSE,163,7.0,8.0,68,0.00,,,0.00,Wunderground v.1.15,2013-04-26 13:45:00,
2013-04-26 08:50:00,51.1,40.5,30.40,South,191,6.0,6.0,67,0.00,,,0.00,Wunderground v.1.15,2013-04-26 13:50:00,
2013-04-26 08:55:00,51.6,40.6,30.40,SSE,147,6.0,8.0,66,0.00,,,0.00,Wunderground v.1.15,2013-04-26 13:55:00,
2013-04-26 09:00:00,51.8,40.0,30.40,South,172,6.0,9.0,64,0.00,,,0.00,Wunderground v.1.15,2013-04-26 14:00:00,
2013-04-26 09:10:00,52.2,40.8,30.40,SE,146,9.0,9.0,65,0.00,,,0.00,Wunderground v.1.15,2013-04-26 14:10:00,
2013-04-26 09:15:00,52.8,41.0,30.40,SSE,160,7.0,9.0,64,0.00,,,0.00,Wunderground v.1.15,2013-04-26 14:15:00,
2013-04-26 09:20:00,53.3,42.2,30.40,SE,131,6.0,6.0,66,0.00,,,0.00,Wunderground v.1.15,2013-04-26 14:20:00,
2013-04-26 09:25:00,53.7,41.0,30.40,SSW,194,6.0,12.0,62,0.00,,,0.00,Wunderground v.1.15,2013-04-26 14:25:00,
2013-04-26 09:30:00,53.9,41.6,30.40,SSE,158,7.0,7.0,63,0.00,,,0.00,Wunderground v.1.15,2013-04-26 14:30:00,
2013-04-26 09:35:00,53.7,41.4,30.40,SSE,150,8.0,8.0,63,0.00,,,0.00,Wunderground v.1.15,2013-04-26 14:35:00,
2013-04-26 09:40:00,54.0,41.3,30.40,SSE,152,8.0,8.0,62,0.00,,,0.00,Wunderground v.1.15,2013-04-26 14:40:00,
2013-04-26 09:45:00,54.3,41.1,30.40,South,170,6.0,8.0,61,0.00,,,0.00,Wunderground v.1.15,2013-04-26 14:45:00,
2013-04-26 09:50:00,54.2,40.6,30.40,SSW,202,8.0,9.0,60,0.00,,,0.00,Wunderground v.1.15,2013-04-26 14:50:00,
2013-04-26 09:55:00,54.4,41.2,30.40,SE,145,9.0,13.0,61,0.00,,,0.00,Wunderground v.1.15,2013-04-26 14:55:00,
2013-04-26 10:00:00,54.6,41.4,30.40,SSE,166,8.0,8.0,61,0.00,,,0.00,Wunderground v.1.15,2013-04-26 15:00:00,
2013-04-26 10:05:00,54.9,41.3,30.40,South,178,8.0,12.0,60,0.00,,,0.00,Wunderground v.1.15,2013-04-26 15:05:00,
2013-04-26 10:15:00,55.3,41.6,30.40,SSE,156,8.0,9.0,60,0.00,,,0.00,Wunderground v.1.15,2013-04-26 15:15:00,
2013-04-26 10:20:00,55.7,42.0,30.40,SSE,159,8.0,8.0,60,0.00,,,0.00,Wunderground v.1.15,2013-04-26 15:20:00,
2013-04-26 10:25:00,55.7,42.5,30.40,SSE,167,8.0,10.0,61,0.00,,,0.00,Wunderground v.1.15,2013-04-26 15:25:00,
2013-04-26 10:30:00,55.6,41.9,30.40,South,191,9.0,9.0,60,0.00,,,0.00,Wunderground v.1.15,2013-04-26 15:30:00,
2013-04-26 10:35:00,55.9,43.1,30.40,SSW,202,9.0,10.0,62,0.00,,,0.00,Wunderground v.1.15,2013-04-26 15:35:00,
2013-04-26 10:40:00,56.2,43.3,30.40,South,169,9.0,9.0,62,0.00,,,0.00,Wunderground v.1.15,2013-04-26 15:40:00,
2013-04-26 10:45:00,56.7,42.5,30.41,South,173,9.0,9.0,59,0.00,,,0.00,Wunderground v.1.15,2013-04-26 15:45:00,
2013-04-26 10:50:00,56.7,41.2,30.41,SSE,148,10.0,10.0,56,0.00,,,0.00,Wunderground v.1.15,2013-04-26 15:50:00,
2013-04-26 10:55:00,56.8,41.7,30.41,South,188,10.0,14.0,57,0.00,,,0.00,Wunderground v.1.15,2013-04-26 15:55:00,
2013-04-26 11:00:00,56.3,41.7,30.41,South,173,12.0,20.0,58,0.00,,,0.00,Wunderground v.1.15,2013-04-26 16:00:00,
2013-04-26 11:10:00,57.1,42.9,30.41,SSE,166,9.0,9.0,59,0.00,,,0.00,Wunderground v.1.15,2013-04-26 16:10:00,
2013-04-26 11:15:00,57.2,42.1,30.41,South,171,7.0,9.0,57,0.00,,,0.00,Wunderground v.1.15,2013-04-26 16:15:00,
2013-04-26 11:20:00,56.9,42.7,30.41,South,171,10.0,10.0,59,0.00,,,0.00,Wunderground v.1.15,2013-04-26 16:20:00,
2013-04-26 11:25:00,57.4,42.7,30.40,SE,144,10.0,10.0,58,0.00,,,0.00,Wunderground v.1.15,2013-04-26 16:25:00,
2013-04-26 11:30:00,57.5,42.8,30.40,SSE,163,8.0,10.0,58,0.00,,,0.00,Wunderground v.1.15,2013-04-26 16:30:00,
2013-04-26 11:35:00,57.6,43.4,30.40,SSE,165,9.0,10.0,59,0.00,,,0.00,Wunderground v.1.15,2013-04-26 16:35:00,
2013-04-26 11:40:00,57.6,43.8,30.40,South,179,10.0,10.0,60,0.00,,,0.00,Wunderground v.1.15,2013-04-26 16:40:00,
2013-04-26 11:45:00,57.9,45.0,30.39,ESE,123,11.0,11.0,62,0.00,,,0.00,Wunderground v.1.15,2013-04-26 16:45:00,
2013-04-26 11:50:00,58.7,44.4,30.39,SSE,155,10.0,10.0,59,0.00,,,0.00,Wunderground v.1.15,2013-04-26 16:50:00,
2013-04-26 11:55:00,59.3,44.5,30.39,SSW,207,8.0,11.0,58,0.00,,,0.00,Wunderground v.1.15,2013-04-26 16:55:00,
2013-04-26 12:00:00,59.5,44.2,30.39,South,178,10.0,10.0,57,0.00,,,0.00,Wunderground v.1.15,2013-04-26 17:00:00,
2013-04-26 12:10:00,60.4,45.1,30.39,SSE,151,8.0,8.0,57,0.00,,,0.00,Wunderground v.1.15,2013-04-26 17:10:00,
2013-04-26 12:15:00,60.8,45.0,30.39,South,188,8.0,9.0,56,0.00,,,0.00,Wunderground v.1.15,2013-04-26 17:15:00,
2013-04-26 12:20:00,60.8,45.9,30.39,SW,216,9.0,11.0,58,0.00,,,0.00,Wunderground v.1.15,2013-04-26 17:20:00,
2013-04-26 12:25:00,61.2,46.3,30.39,South,184,10.0,17.0,58,0.00,,,0.00,Wunderground v.1.15,2013-04-26 17:25:00,
2013-04-26 12:30:00,61.0,44.7,30.39,SSE,161,11.0,11.0,55,0.00,,,0.00,Wunderground v.1.15,2013-04-26 17:30:00,
2013-04-26 12:35:00,61.1,44.3,30.38,South,189,11.0,15.0,54,0.00,,,0.00,Wunderground v.1.15,2013-04-26 17:35:00,
2013-04-26 12:40:00,61.0,45.7,30.38,South,174,11.0,13.0,57,0.00,,,0.00,Wunderground v.1.15,2013-04-26 17:40:00,
2013-04-26 12:45:00,61.4,46.0,30.38,SSW,196,10.0,13.0,57,0.00,,,0.00,Wunderground v.1.15,2013-04-26 17:45:00,
2013-04-26 12:50:00,62.1,46.7,30.37,South,188,10.0,14.0,57,0.00,,,0.00,Wunderground v.1.15,2013-04-26 17:50:00,
2013-04-26 12:55:00,62.3,46.4,30.37,South,182,11.0,14.0,56,0.00,,,0.00,Wunderground v.1.15,2013-04-26 17:55:00,
2013-04-26 13:00:00,62.4,46.5,30.37,SSW,197,13.0,14.0,56,0.00,,,0.00,Wunderground v.1.15,2013-04-26 18:00:00,
2013-04-26 13:05:00,62.5,47.1,30.37,South,171,13.0,14.0,57,0.00,,,0.00,Wunderground v.1.15,2013-04-26 18:05:00,
2013-04-26 13:10:00,62.7,46.3,30.37,South,173,13.0,16.0,55,0.00,,,0.00,Wunderground v.1.15,2013-04-26 18:10:00,
2013-04-26 13:15:00,62.6,45.7,30.37,South,184,12.0,16.0,54,0.00,,,0.00,Wunderground v.1.15,2013-04-26 18:15:00,
2013-04-26 13:20:00,62.7,46.3,30.37,South,179,11.0,15.0,55,0.00,,,0.00,Wunderground v.1.15,2013-04-26 18:20:00,
2013-04-26 13:25:00,62.7,46.8,30.36,SW,216,13.0,18.0,56,0.00,,,0.00,Wunderground v.1.15,2013-04-26 18:25:00,
2013-04-26 13:30:00,63.2,47.7,30.36,South,188,14.0,14.0,57,0.00,,,0.00,Wunderground v.1.15,2013-04-26 18:30:00,
2013-04-26 13:35:00,63.3,46.4,30.36,South,190,13.0,15.0,54,0.00,,,0.00,Wunderground v.1.15,2013-04-26 18:35:00,
2013-04-26 13:40:00,63.5,47.0,30.36,South,176,13.0,13.0,55,0.00,,,0.00,Wunderground v.1.15,2013-04-26 18:40:00,
2013-04-26 13:45:00,63.7,47.7,30.36,South,186,13.0,16.0,56,0.00,,,0.00,Wunderground v.1.15,2013-04-26 18:45:00,
2013-04-26 13:50:00,63.7,48.2,30.35,SW,219,13.0,13.0,57,0.00,,,0.00,Wunderground v.1.15,2013-04-26 18:50:00,
2013-04-26 13:55:00,63.6,47.1,30.35,South,177,13.0,19.0,55,0.00,,,0.00,Wunderground v.1.15,2013-04-26 18:55:00,
2013-04-26 14:00:00,63.7,46.7,30.35,SSW,202,12.0,14.0,54,0.00,,,0.00,Wunderground v.1.15,2013-04-26 19:00:00,
2013-04-26 14:05:00,63.9,47.4,30.35,South,190,13.0,15.0,55,0.00,,,0.00,Wunderground v.1.15,2013-04-26 19:05:00,
2013-04-26 14:10:00,64.1,48.5,30.35,SSW,213,15.0,15.0,57,0.00,,,0.00,Wunderground v.1.15,2013-04-26 19:10:00,
2013-04-26 14:15:00,64.1,47.6,30.34,SSW,212,14.0,15.0,55,0.00,,,0.00,Wunderground v.1.15,2013-04-26 19:15:00,
2013-04-26 14:20:00,64.2,47.2,30.34,SW,220,13.0,14.0,54,0.00,,,0.00,Wunderground v.1.15,2013-04-26 19:20:00,
2013-04-26 14:25:00,64.6,47.1,30.34,South,190,13.0,14.0,53,0.00,,,0.00,Wunderground v.1.15,2013-04-26 19:25:00,
2013-04-26 14:30:00,64.3,46.8,30.34,SSE,151,13.0,13.0,53,0.00,,,0.00,Wunderground v.1.15,2013-04-26 19:30:00,
2013-04-26 14:35:00,64.5,48.0,30.34,SSW,203,12.0,13.0,55,0.00,,,0.00,Wunderground v.1.15,2013-04-26 19:35:00,
2013-04-26 14:40:00,64.6,47.6,30.34,SW,232,12.0,14.0,54,0.00,,,0.00,Wunderground v.1.15,2013-04-26 19:40:00,
2013-04-26 14:45:00,64.8,48.2,30.33,SSW,203,12.0,14.0,55,0.00,,,0.00,Wunderground v.1.15,2013-04-26 19:45:00,
2013-04-26 14:50:00,65.1,49.5,30.33,SSW,196,12.0,12.0,57,0.00,,,0.00,Wunderground v.1.15,2013-04-26 19:50:00,
2013-04-26 14:55:00,65.3,49.2,30.33,South,172,12.0,16.0,56,0.00,,,0.00,Wunderground v.1.15,2013-04-26 19:55:00,
2013-04-26 15:00:00,65.2,48.1,30.33,SSE,168,13.0,13.0,54,0.00,,,0.00,Wunderground v.1.15,2013-04-26 20:00:00,
2013-04-26 15:05:00,65.1,47.5,30.32,SSW,205,13.0,13.0,53,0.00,,,0.00,Wunderground v.1.15,2013-04-26 20:05:00,
2013-04-26 15:10:00,65.2,47.6,30.33,SW,229,12.0,12.0,53,0.00,,,0.00,Wunderground v.1.15,2013-04-26 20:10:00,
2013-04-26 15:15:00,65.2,48.6,30.33,SSW,208,13.0,13.0,55,0.00,,,0.00,Wunderground v.1.15,2013-04-26 20:15:00,
2013-04-26 15:20:00,65.1,47.5,30.32,South,180,12.0,15.0,53,0.00,,,0.00,Wunderground v.1.15,2013-04-26 20:20:00,
2013-04-26 15:25:00,65.7,48.6,30.32,SW,220,11.0,17.0,54,0.00,,,0.00,Wunderground v.1.15,2013-04-26 20:25:00,
2013-04-26 15:30:00,65.2,48.1,30.32,South,171,13.0,13.0,54,0.00,,,0.00,Wunderground v.1.15,2013-04-26 20:30:00,
2013-04-26 15:35:00,65.1,48.0,30.32,SSW,196,13.0,14.0,54,0.00,,,0.00,Wunderground v.1.15,2013-04-26 20:35:00,
2013-04-26 15:40:00,64.9,48.3,30.32,SSW,209,13.0,14.0,55,0.00,,,0.00,Wunderground v.1.15,2013-04-26 20:40:00,
2013-04-26 15:45:00,64.8,49.2,30.32,South,188,13.0,15.0,57,0.00,,,0.00,Wunderground v.1.15,2013-04-26 20:45:00,
2013-04-26 15:50:00,65.3,49.2,30.32,SSW,205,12.0,13.0,56,0.00,,,0.00,Wunderground v.1.15,2013-04-26 20:50:00,
2013-04-26 15:55:00,65.2,48.6,30.32,SSW,204,12.0,13.0,55,0.00,,,0.00,Wunderground v.1.15,2013-04-26 20:55:00,
2013-04-26 16:00:00,64.8,48.2,30.32,SW,217,12.0,14.0,55,0.00,,,0.00,Wunderground v.1.15,2013-04-26 21:00:00,
2013-04-26 16:10:00,64.9,47.4,30.32,SSW,207,11.0,11.0,53,0.00,,,0.00,Wunderground v.1.15,2013-04-26 21:10:00,
2013-04-26 16:15:00,65.1,48.5,30.31,SSW,211,10.0,11.0,55,0.00,,,0.00,Wunderground v.1.15,2013-04-26 21:15:00,
2013-04-26 16:20:00,65.4,48.3,30.32,SSW,200,10.0,10.0,54,0.00,,,0.00,Wunderground v.1.15,2013-04-26 21:20:00,
2013-04-26 16:25:00,65.5,48.9,30.31,SSW,202,11.0,11.0,55,0.00,,,0.00,Wunderground v.1.15,2013-04-26 21:25:00,
2013-04-26 16:35:00,65.2,48.1,30.31,South,169,11.0,11.0,54,0.00,,,0.00,Wunderground v.1.15,2013-04-26 21:35:00,
2013-04-26 16:40:00,65.1,47.5,30.31,South,182,10.0,10.0,53,0.00,,,0.00,Wunderground v.1.15,2013-04-26 21:40:00,
2013-04-26 16:45:00,65.5,47.9,30.31,South,183,10.0,14.0,53,0.00,,,0.00,Wunderground v.1.15,2013-04-26 21:45:00,
2013-04-26 16:50:00,65.3,48.2,30.31,SSW,195,11.0,11.0,54,0.00,,,0.00,Wunderground v.1.15,2013-04-26 21:50:00,
2013-04-26 16:55:00,65.2,48.6,30.31,SW,215,11.0,17.0,55,0.00,,,0.00,Wunderground v.1.15,2013-04-26 21:55:00,
2013-04-26 17:00:00,65.1,47.5,30.30,South,188,11.0,11.0,53,0.00,,,0.00,Wunderground v.1.15,2013-04-26 22:00:00,
2013-04-26 17:05:00,65.3,48.7,30.30,SSW,206,10.0,12.0,55,0.00,,,0.00,Wunderground v.1.15,2013-04-26 22:05:00,
2013-04-26 17:10:00,65.6,48.5,30.31,South,180,9.0,10.0,54,0.00,,,0.00,Wunderground v.1.15,2013-04-26 22:10:00,
2013-04-26 17:15:00,64.9,48.3,30.31,SSW,194,9.0,11.0,55,0.00,,,0.00,Wunderground v.1.15,2013-04-26 22:15:00,
2013-04-26 17:20:00,64.4,48.8,30.31,SW,222,9.0,11.0,57,0.00,,,0.00,Wunderground v.1.15,2013-04-26 22:20:00,
2013-04-26 17:25:00,64.0,48.5,30.31,SSW,196,10.0,11.0,57,0.00,,,0.00,Wunderground v.1.15,2013-04-26 22:25:00,
2013-04-26 17:30:00,64.0,48.9,30.31,SSW,198,10.0,12.0,58,0.00,,,0.00,Wunderground v.1.15,2013-04-26 22:30:00,
2013-04-26 17:35:00,63.9,48.4,30.31,South,175,10.0,13.0,57,0.00,,,0.00,Wunderground v.1.15,2013-04-26 22:35:00,
2013-04-26 17:40:00,63.7,47.2,30.31,SSE,167,11.0,12.0,55,0.00,,,0.00,Wunderground v.1.15,2013-04-26 22:40:00,
2013-04-26 17:45:00,63.6,47.6,30.31,South,188,12.0,12.0,56,0.00,,,0.00,Wunderground v.1.15,2013-04-26 22:45:00,
2013-04-26 17:50:00,63.4,47.9,30.31,SSW,205,11.0,11.0,57,0.00,,,0.00,Wunderground v.1.15,2013-04-26 22:50:00,
2013-04-26 17:55:00,63.4,47.4,30.31,South,181,10.0,11.0,56,0.00,,,0.00,Wunderground v.1.15,2013-04-26 22:55:00,
2013-04-26 18:00:00,63.4,48.8,30.31,South,188,9.0,9.0,59,0.00,,,0.00,Wunderground v.1.15,2013-04-26 23:00:00,
2013-04-26 18:05:00,63.5,48.0,30.31,South,183,8.0,9.0,57,0.00,,,0.00,Wunderground v.1.15,2013-04-26 23:05:00,
2013-04-26 18:10:00,63.5,47.5,30.31,South,173,7.0,11.0,56,0.00,,,0.00,Wunderground v.1.15,2013-04-26 23:10:00,
2013-04-26 18:15:00,63.6,48.1,30.31,SSE,168,8.0,11.0,57,0.00,,,0.00,Wunderground v.1.15,2013-04-26 23:15:00,
2013-04-26 18:20:00,63.6,47.1,30.31,South,183,8.0,11.0,55,0.00,,,0.00,Wunderground v.1.15,2013-04-26 23:20:00,
2013-04-26 18:25:00,63.4,47.9,30.31,South,190,8.0,11.0,57,0.00,,,0.00,Wunderground v.1.15,2013-04-26 23:25:00,
2013-04-26 18:30:00,63.2,47.2,30.31,South,180,8.0,10.0,56,0.00,,,0.00,Wunderground v.1.15,2013-04-26 23:30:00,
2013-04-26 18:35:00,63.0,47.1,30.31,SSE,163,7.0,10.0,56,0.00,,,0.00,Wunderground v.1.15,2013-04-26 23:35:00,
2013-04-26 18:40:00,62.9,47.9,30.31,South,183,7.0,7.0,58,0.00,,,0.00,Wunderground v.1.15,2013-04-26 23:40:00,
2013-04-26 18:45:00,62.8,48.3,30.32,South,175,5.0,7.0,59,0.00,,,0.00,Wunderground v.1.15,2013-04-26 23:45:00,
2013-04-26 18:50:00,62.7,48.2,30.32,SSE,159,6.0,6.0,59,0.00,,,0.00,Wunderground v.1.15,2013-04-26 23:50:00,
2013-04-26 19:10:00,61.7,47.7,30.32,South,173,7.0,8.0,60,0.00,,,0.00,Wunderground v.1.15,2013-04-27 00:10:00,
2013-04-26 19:15:00,61.5,47.5,30.32,South,188,7.0,8.0,60,0.00,,,0.00,Wunderground v.1.15,2013-04-27 00:15:00,
2013-04-26 19:20:00,61.2,47.2,30.32,South,183,7.0,8.0,60,0.00,,,0.00,Wunderground v.1.15,2013-04-27 00:20:00,
2013-04-26 19:25:00,60.9,47.8,30.32,SSW,194,7.0,8.0,62,0.00,,,0.00,Wunderground v.1.15,2013-04-27 00:25:00,
2013-04-26 19:30:00,60.5,47.8,30.32,South,188,8.0,8.0,63,0.00,,,0.00,Wunderground v.1.15,2013-04-27 00:30:00,
2013-04-26 19:35:00,60.1,47.9,30.32,South,184,8.0,8.0,64,0.00,,,0.00,Wunderground v.1.15,2013-04-27 00:35:00,
2013-04-26 19:40:00,59.7,47.9,30.32,South,181,7.0,7.0,65,0.00,,,0.00,Wunderground v.1.15,2013-04-27 00:40:00,
2013-04-26 19:50:00,59.3,47.5,30.32,South,178,7.0,8.0,65,0.00,,,0.00,Wunderground v.1.15,2013-04-27 00:50:00,
2013-04-26 19:55:00,59.1,47.3,30.32,South,188,8.0,8.0,65,0.00,,,0.00,Wunderground v.1.15,2013-04-27 00:55:00,
2013-04-26 20:00:00,59.0,47.2,30.32,South,188,8.0,8.0,65,0.00,,,0.00,Wunderground v.1.15,2013-04-27 01:00:00,
2013-04-26 20:05:00,58.7,47.4,30.32,South,182,8.0,8.0,66,0.00,,,0.00,Wunderground v.1.15,2013-04-27 01:05:00,
2013-04-26 20:10:00,58.6,47.3,30.32,SSE,168,8.0,8.0,66,0.00,,,0.00,Wunderground v.1.15,2013-04-27 01:10:00,
2013-04-26 20:15:00,58.6,47.3,30.32,South,180,6.0,8.0,66,0.00,,,0.00,Wunderground v.1.15,2013-04-27 01:15:00,
2013-04-26 20:20:00,58.6,47.3,30.32,South,174,5.0,5.0,66,0.00,,,0.00,Wunderground v.1.15,2013-04-27 01:20:00,
2013-04-26 20:25:00,58.6,47.3,30.32,SSE,161,5.0,5.0,66,0.00,,,0.00,Wunderground v.1.15,2013-04-27 01:25:00,
2013-04-26 20:30:00,58.3,47.4,30.32,South,169,5.0,5.0,67,0.00,,,0.00,Wunderground v.1.15,2013-04-27 01:30:00,
2013-04-26 20:35:00,57.8,47.7,30.32,SSW,198,4.0,5.0,69,0.00,,,0.00,Wunderground v.1.15,2013-04-27 01:35:00,
2013-04-26 20:40:00,56.9,47.2,30.32,South,186,4.0,4.0,70,0.00,,,0.00,Wunderground v.1.15,2013-04-27 01:40:00,
2013-04-26 20:45:00,56.8,47.1,30.32,South,181,3.0,4.0,70,0.00,,,0.00,Wunderground v.1.15,2013-04-27 01:45:00,
2013-04-26 20:50:00,56.8,47.1,30.32,South,185,3.0,3.0,70,0.00,,,0.00,Wunderground v.1.15,2013-04-27 01:50:00,
2013-04-26 20:55:00,56.9,46.8,30.32,SSE,162,3.0,3.0,69,0.00,,,0.00,Wunderground v.1.15,2013-04-27 01:55:00,
2013-04-26 21:00:00,56.9,46.8,30.32,South,169,2.0,2.0,69,0.00,,,0.00,Wunderground v.1.15,2013-04-27 02:00:00,
2013-04-26 21:05:00,56.8,46.7,30.32,South,169,2.0,2.0,69,0.00,,,0.00,Wunderground v.1.15,2013-04-27 02:05:00,
2013-04-26 21:10:00,56.7,47.0,30.32,South,169,1.0,1.0,70,0.00,,,0.00,Wunderground v.1.15,2013-04-27 02:10:00,
2013-04-26 21:15:00,56.5,46.8,30.32,South,169,1.0,2.0,70,0.00,,,0.00,Wunderground v.1.15,2013-04-27 02:15:00,
2013-04-26 21:20:00,56.4,46.7,30.32,South,169,1.0,2.0,70,0.00,,,0.00,Wunderground v.1.15,2013-04-27 02:20:00,
2013-04-26 21:25:00,56.4,46.7,30.32,South,169,1.0,2.0,70,0.00,,,0.00,Wunderground v.1.15,2013-04-27 02:25:00,
2013-04-26 21:30:00,56.2,46.5,30.32,South,169,1.0,1.0,70,0.00,,,0.00,Wunderground v.1.15,2013-04-27 02:30:00,
2013-04-26 21:35:00,55.9,46.6,30.32,South,169,1.0,1.0,71,0.00,,,0.00,Wunderground v.1.15,2013-04-27 02:35:00,
2013-04-26 21:40:00,55.5,46.6,30.32,South,169,1.0,1.0,72,0.00,,,0.00,Wunderground v.1.15,2013-04-27 02:40:00,
2013-04-26 21:45:00,55.1,46.6,30.33,South,169,1.0,1.0,73,0.00,,,0.00,Wunderground v.1.15,2013-04-27 02:45:00,
2013-04-26 21:50:00,55.3,46.4,30.33,South,170,1.0,4.0,72,0.00,,,0.00,Wunderground v.1.15,2013-04-27 02:50:00,
2013-04-26 21:55:00,55.6,46.7,30.33,South,173,2.0,4.0,72,0.00,,,0.00,Wunderground v.1.15,2013-04-27 02:55:00,
2013-04-26 22:00:00,55.8,46.5,30.33,South,179,2.0,3.0,71,0.00,,,0.00,Wunderground v.1.15,2013-04-27 03:00:00,
2013-04-26 22:10:00,55.8,46.5,30.33,SSE,162,2.0,3.0,71,0.00,,,0.00,Wunderground v.1.15,2013-04-27 03:10:00,
2013-04-26 22:15:00,55.7,46.4,30.33,SSE,168,2.0,4.0,71,0.00,,,0.00,Wunderground v.1.15,2013-04-27 03:15:00,
2013-04-26 22:20:00,55.7,46.8,30.33,SSE,165,3.0,3.0,72,0.00,,,0.00,Wunderground v.1.15,2013-04-27 03:20:00,
2013-04-26 22:25:00,55.5,46.6,30.33,SSW,192,3.0,3.0,72,0.00,,,0.00,Wunderground v.1.15,2013-04-27 03:25:00,
2013-04-26 22:35:00,55.1,46.6,30.33,South,175,3.0,3.0,73,0.00,,,0.00,Wunderground v.1.15,2013-04-27 03:35:00,
2013-04-26 22:40:00,55.0,46.9,30.33,South,177,3.0,3.0,74,0.00,,,0.00,Wunderground v.1.15,2013-04-27 03:40:00,
2013-04-26 22:45:00,54.7,46.9,30.33,South,189,3.0,4.0,75,0.00,,,0.00,Wunderground v.1.15,2013-04-27 03:45:00,
2013-04-26 22:50:00,53.8,46.4,30.34,SSW,203,3.0,4.0,76,0.00,,,0.00,Wunderground v.1.15,2013-04-27 03:50:00,
2013-04-26 22:55:00,52.3,46.0,30.34,SSW,206,4.0,4.0,79,0.00,,,0.00,Wunderground v.1.15,2013-04-27 03:55:00,
2013-04-26 23:00:00,51.5,45.5,30.33,SSW,194,4.0,4.0,80,0.00,,,0.00,Wunderground v.1.15,2013-04-27 04:00:00,
2013-04-26 23:05:00,51.2,45.6,30.33,SSW,200,4.0,4.0,81,0.00,,,0.00,Wunderground v.1.15,2013-04-27 04:05:00,
2013-04-26 23:10:00,50.8,45.8,30.33,SSW,202,5.0,5.0,83,0.00,,,0.00,Wunderground v.1.15,2013-04-27 04:10:00,
2013-04-26 23:15:00,50.7,45.7,30.33,SSW,205,5.0,5.0,83,0.00,,,0.00,Wunderground v.1.15,2013-04-27 04:15:00,